カタログに戻る

KUIPER-00629

運用中通信LEO
NORAD 69783·PAYLOAD·🇺🇸 United States

打ち上げ Jul 2, 2026 から Cape Canaveral Space Force Station

Loading…

次のパス (今後24時間)

TLE

最新Source: CelesTrak SupGP

元期: Sep 14, 2026, 15:43 UTC

1 69783C 26151W   26257.65513889  .00000566  00000+0  74096-4 0  2578
2 69783  51.9003 262.4800 0000657  61.3495   9.6140 14.79927575    18

AllMySatでKUIPER-00629をリアルタイム追跡

Download on the App Store